CDT,Max TemperatureF,Mean TemperatureF,Min TemperatureF,Max Dew PointF,MeanDew PointF,Min DewpointF,Max Humidity, Mean Humidity, Min Humidity, Max Sea Level PressureIn, Mean Sea Level PressureIn, Min Sea Level PressureIn, Max VisibilityMiles, Mean VisibilityMiles, Min VisibilityMiles, Max Wind SpeedMPH, Mean Wind SpeedMPH, Max Gust SpeedMPH,PrecipitationIn, CloudCover, Events, WindDirDegrees
2013-4-1,47,44,41,39,30,21,86,63,40,30.27,30.18,29.97,10,10,10,21,10,28,0.02,5,Rain,29
2013-4-2,46,40,34,28,25,21,70,58,45,30.32,30.28,30.25,10,10,8,14,7,17,0.09,7,Rain,70
2013-4-3,47,42,36,36,27,21,76,58,40,30.34,30.28,30.22,10,10,10,16,7,23,0.02,6,Rain,52
2013-4-4,61,50,39,35,31,26,79,57,35,30.22,30.15,30.09,10,10,10,13,5,18,0.00,2,,357
2013-4-5,69,52,34,43,39,33,92,62,32,30.19,30.08,29.89,10,10,7,20,10,24,0.00,0,,205
2013-4-6,75,64,53,50,47,40,77,59,41,29.88,29.79,29.73,10,10,10,31,16,41,0.00,0,,207
2013-4-7,74,59,43,59,54,42,97,77,57,29.87,29.77,29.70,10,9,5,26,9,37,0.02,4,Rain-Thunderstorm,160
2013-4-8,71,66,60,60,58,55,90,80,70,29.73,29.69,29.65,10,10,10,24,13,30,T,7,Rain,160
2013-4-9,74,61,47,63,59,49,78,73,68,29.78,29.69,29.61,10,10,8,26,13,35,0.02,8,Rain-Thunderstorm,169
2013-4-10,47,41,34,43,36,31,96,89,82,29.96,29.86,29.76,10,8,2,28,14,36,0.54,8,Rain-Thunderstorm,320
2013-4-11,48,41,33,34,29,25,89,69,49,29.92,29.83,29.77,10,10,6,21,12,40,T,7,Snow,287
2013-4-12,57,45,32,36,30,26,79,59,38,30.05,29.96,29.85,10,10,10,20,9,25,0.00,1,,309
2013-4-13,71,52,33,48,40,31,92,66,40,30.07,29.91,29.70,10,10,10,24,13,31,0.00,1,,135
2013-4-14,78,67,55,56,48,37,68,53,38,29.71,29.57,29.48,10,10,10,35,18,45,T,3,Rain-Thunderstorm,176
2013-4-15,57,53,48,40,35,32,59,54,48,29.95,29.82,29.74,10,10,10,21,17,35,T,8,Rain,55
2013-4-16,48,45,42,43,41,35,92,77,61,30.08,30.02,29.93,10,4,2,29,18,40,0.03,8,Rain,67
2013-4-17,77,61,45,66,52,44,100,85,69,30.01,29.79,29.64,10,6,1,25,11,35,0.45,8,Rain-Thunderstorm,90
2013-4-18,50,43,36,49,38,26,92,77,62,30.04,29.75,29.56,10,8,2,26,17,38,0.36,8,Rain-Thunderstorm,328
2013-4-19,59,45,31,31,27,23,78,54,29,30.10,30.06,30.01,10,10,10,24,12,31,0.00,2,,296
2013-4-20,62,49,35,41,34,27,82,62,42,30.20,30.13,30.08,10,10,10,17,10,22,0.00,1,,97
2013-4-21,67,59,50,44,41,39,68,54,40,30.22,30.15,30.10,10,10,10,22,11,28,0.00,3,,153
2013-4-22,68,58,47,54,45,38,93,69,45,30.12,29.99,29.88,10,9,4,23,11,30,0.89,4,Rain-Thunderstorm,140
2013-4-23,53,44,35,52,35,31,93,85,76,30.21,30.05,29.94,10,5,1,26,15,37,1.09,8,Rain-Snow-Thunderstorm,2
2013-4-24,55,43,30,34,30,26,96,67,38,30.31,30.26,30.20,10,9,2,15,8,20,0.04,3,Snow,292
2013-4-25,68,51,33,42,36,30,89,60,30,30.35,30.27,30.10,10,10,10,22,8,36,0.00,0,,185
2013-4-26,61,55,48,49,46,34,93,65,36,30.25,30.18,30.12,10,7,1,23,10,30,0.70,8,Rain-Thunderstorm,125
2013-4-27,56,52,48,50,48,47,93,85,77,30.13,30.07,30.03,10,9,3,13,6,16,T,8,,19
2013-4-28,74,58,42,57,49,42,100,77,53,30.03,29.95,29.80,10,6,0,15,8,21,0.00,1,Fog,193
2013-4-29,84,70,56,65,57,51,87,66,44,29.81,29.74,29.65,10,10,10,21,14,26,0.00,0,,175
2013-4-30,82,71,60,58,55,51,84,60,36,29.80,29.75,29.69,10,10,10,28,15,37,0.00,0,,172